Location: Newark
(51.3318°N, 0.0053°E)
Time: 08:01:31
(UTC+00:00)

CAS-6 - Pass Details

Date: 11 July 2022
Orbit: 613 x 634 km, 97.9° (Epoch: 09 August)

Event Time Altitude Azimuth Distance (km) Brightness Sun altitude
Exits shadow 23:08:22 13° 218° (SW) 1,799 ? -15.6°
Maximum altitude 23:11:16 24° 267° (W) 1,301 ? -15.7°
Drops below altitude 10° 23:14:46 10° 322° (NW) 1,991 ? -15.8°
Sets 23:17:20 0° 336° (NNW) 2,899 ? -15.9°
